Simultaneous Nadir Overpasses (SNOs) Predictions

Prediction of SNOs between GOES-14 and NOAA-20 Satellite Orbit:

Table of predicted SNOs for the next 14.0 days since TLE Epoch: 10/19/2018
Index Date Time (GOES-14) GOES-14 Lat,Lon NOAA-20 Lat,Lon Distance(km) Time Diff (sec)
1 10/19/2018 20:04:21 -0.23,-104.09 0.73, -99.76 493.13 80
2 10/21/2018 08:26:09 0.20,-104.11 0.42,-105.03 105.24 80
3 10/22/2018 08:04:45 0.22,-104.10 -0.60,-100.50 410.39 80
4 10/23/2018 20:26:41 -0.19,-104.06 -0.58,-105.81 199.08 80
5 10/24/2018 20:10:36 -0.20,-104.07 0.45,-101.28 318.29 80
6 10/26/2018 08:32:25 0.18,-104.12 0.70,-106.55 277.09 80
7 10/27/2018 08:10:59 0.19,-104.10 -0.27,-102.01 238.31 80
8 10/28/2018 20:32:56 -0.16,-104.03 -0.91,-107.32 374.94 80
9 10/29/2018 20:16:51 -0.18,-104.03 0.12,-102.79 141.90 80
10 10/31/2018 08:38:39 0.14,-104.10 1.03,-108.06 451.05 80
11 11/01/2018 08:17:14 0.16,-104.09 0.06,-103.52 64.18 80




NCC Satellite Simultaneous Nadir Overpasses (SNOs) Prediction Service
